Cortez, CO

11:59 AM MST on November 22, 2019 (GMT -0700)
Cortez Municipal

Weather History for KCEZ - September, 2019

Change the Weather History Date:

Wednesday, September 11, 2019

  Actual Average Record
Temperature  
Mean Temperature 65 °F 62 °F  
Max Temperature 79 °F 79 °F 90 °F (2015)
Min Temperature 50 °F 45 °F 33 °F (2010)
Degree Days  
Heating Degree Days 0 4  
Month to date heating degree days 6 27  
Since 1 July heating degree days 6 39  
Cooling Degree Days 0 1  
Month to date cooling degree days 63 14  
Year to date cooling degree days 543 423  
Growing Degree Days 14 (Base 50)    
Moisture  
Dew Point 39 °F    
Average Humidity 48    
Maximum Humidity 83    
Minimum Humidity 13    
Precipitation  
Precipitation 0.00 in 0.06 in 0.72 in (2002)
Month to date precipitation 0.15 0.59  
Year to date precipitation 9.93 9.03  
Sea Level Pressure  
Sea Level Pressure 29.94 in    
Wind  
Wind Speed 9 mph (WNW)    
Max Wind Speed 28 mph    
Max Gust Speed 40 mph    
Visibility 10 miles    
Events      
T = Trace of Precipitation, MM = Missing Value Source: NWS Daily Summary

Daily Weather History Graph

Daily Weather History Graph

Search for Another Location

Airport or City:

Astronomy

Sep. 11, 2019 Rise Set
Actual Time 6:53 AM MDT 7:28 PM MDT
Civil Twilight 6:26 AM MDT 7:54 PM MDT
Nautical Twilight 5:55 AM MDT 8:25 PM MDT
Astronomical Twilight 5:24 AM MDT 8:57 PM MDT
Moon 6:38 PM MDT (9/11) 4:23 AM MDT (9/11)
Length of Visible Light 13h 27m
Length of Day
12h 35m
Waxing Gibbous, 95% of the Moon is Illuminated
Sep 11
Waxing Gibbous
Sep 13
Full
Sep 21
Last Quarter
Sep 28
New
Oct 5
First Quarter

Hourly Weather History & Observations

Time (MDT) Temp. Dew Point Humidity Pressure Visibility Wind Dir Wind Speed Gust Speed Precip Events Conditions
12:53 AM 57.9 °F 48.0 °F 70% 29.90 in 10.0 mi Calm Calm - N/A   Partly Cloudy
1:53 AM 52.0 °F 46.9 °F 83% 29.91 in 10.0 mi Calm Calm - N/A   Clear
2:53 AM 52.0 °F 46.0 °F 80% 29.91 in 10.0 mi East 3.5 mph - N/A   Partly Cloudy
3:53 AM 53.1 °F 46.0 °F 77% 29.90 in 10.0 mi NNE 5.8 mph - N/A   Scattered Clouds
4:53 AM 51.1 °F 45.0 °F 80% 29.92 in 10.0 mi NE 3.5 mph - N/A   Clear
5:53 AM 53.1 °F 46.0 °F 77% 29.94 in 10.0 mi NE 8.1 mph - N/A   Mostly Cloudy
6:53 AM 51.1 °F 46.0 °F 83% 29.95 in 10.0 mi West 3.5 mph - N/A   Mostly Cloudy
7:53 AM 55.9 °F 48.0 °F 75% 29.97 in 10.0 mi Calm Calm - N/A   Mostly Cloudy
8:53 AM 64.0 °F 51.1 °F 63% 29.98 in 10.0 mi Calm Calm - N/A   Mostly Cloudy
9:53 AM 71.1 °F 51.1 °F 49% 29.96 in 10.0 mi SSW 15.0 mph - N/A   Overcast
10:53 AM 68.0 °F 45.0 °F 43% 29.95 in 10.0 mi SSW 15.0 mph - N/A   Scattered Clouds
11:53 AM 73.9 °F 46.0 °F 37% 29.95 in 10.0 mi SW 17.3 mph 34.5 mph N/A   Partly Cloudy
12:53 PM 75.9 °F 39.9 °F 27% 29.93 in 10.0 mi WSW 12.7 mph 29.9 mph N/A   Clear
1:53 PM 77.0 °F 28.9 °F 17% 29.94 in 10.0 mi West 18.4 mph 29.9 mph N/A   Clear
2:53 PM 78.1 °F 30.0 °F 17% 29.92 in 10.0 mi SW 17.3 mph 29.9 mph N/A   Clear
3:53 PM 78.1 °F 25.0 °F 14% 29.90 in 10.0 mi West 18.4 mph 40.3 mph N/A   Clear
4:53 PM 78.1 °F 27.0 °F 15% 29.90 in 10.0 mi WSW 10.4 mph 27.6 mph N/A   Scattered Clouds
5:53 PM 77.0 °F 27.0 °F 16% 29.91 in 10.0 mi WNW 12.7 mph 24.2 mph N/A   Scattered Clouds
6:53 PM 73.0 °F 28.0 °F 19% 29.91 in 10.0 mi West 9.2 mph 19.6 mph N/A   Clear
7:53 PM 69.1 °F 30.0 °F 23% 29.93 in 10.0 mi West 9.2 mph - N/A   Clear
8:53 PM 64.9 °F 33.1 °F 31% 29.96 in 10.0 mi NNW 18.4 mph 31.1 mph N/A   Overcast
9:53 PM 63.0 °F 33.1 °F 33% 29.99 in 10.0 mi North 6.9 mph 26.5 mph N/A   Overcast
10:53 PM 61.0 °F 33.1 °F 35% 30.03 in 10.0 mi North 10.4 mph 21.9 mph N/A   Clear
11:53 PM 59.0 °F 34.0 °F 39% 30.03 in 10.0 mi NE 12.7 mph 25.3 mph N/A   Clear